Change the Weather History Date:

Saturday, February 8, 2014

  Actual Average Record
Temperature  
Mean Temperature 80 °F 79 °F  
Max Temperature 85 °F 85 °F 92 °F (1993)
Min Temperature 74 °F 73 °F 69 °F (2009)
Degree Days  
Heating Degree Days 0 0  
Month to date heating degree days 0 0  
Since 1 July heating degree days 0 0  
Cooling Degree Days 15 14  
Month to date cooling degree days 115 112  
Year to date cooling degree days 536 540  
Growing Degree Days 28 (Base 50)    
Moisture  
Dew Point 70 °F    
Average Humidity 76    
Maximum Humidity 87    
Minimum Humidity 65    
Precipitation  
Precipitation 0.15 in 0.05 in 1.42 in (2009)
Month to date precipitation 0.88 0.43  
Year to date precipitation 1.90 2.81  
Sea Level Pressure  
Sea Level Pressure 30.05 in    
Wind  
Wind Speed 10 mph (East)    
Max Wind Speed 20 mph    
Max Gust Speed 25 mph    
Visibility 10 miles    
Events Rain    
T = Trace of Precipitation, MM = Missing Value Source: NWS Daily Summary

Daily Weather History Graph

Daily Weather History Graph

Search for Another Location

Airport or City:

Trip Planner

Search our weather history database for the weather conditions in past years. The results will help you decide how hot, cold, wet, or windy it might be!

Date:

Astronomy

Feb. 08, 2014 Rise Set
Actual Time 6:50 AM AST 6:17 PM AST
Civil Twilight 6:28 AM AST 6:40 PM AST
Nautical Twilight 6:02 AM AST 7:06 PM AST
Astronomical Twilight 5:36 AM AST 7:31 PM AST
Moon 1:20 PM AST (2/8) 1:48 AM AST (2/8)
Length of Visible Light 12h 11m
Length of Day
11h 26m
Waxing Gibbous, 68% of the Moon is Illuminated
Feb 8
Waxing Gibbous
Feb 14
Full
Feb 22
Last Quarter
Mar 1
New
Mar 8
First Quarter

Hourly Weather History & Observations

Time (AST) Temp. Heat Index Dew Point Humidity Pressure Visibility Wind Dir Wind Speed Gust Speed Precip Events Conditions
12:53 AM 75.9 °F - 69.1 °F 79% 30.07 in 10.0 mi East 6.9 mph - N/A   Clear
1:37 AM 77.0 °F - 69.8 °F 78% 30.05 in 10.0 mi East 4.6 mph - N/A   Mostly Cloudy
1:53 AM 77.0 °F - 69.1 °F 76% 30.05 in 10.0 mi ENE 6.9 mph - N/A   Overcast
2:03 AM 75.2 °F - 69.8 °F 83% 30.04 in 10.0 mi East 4.6 mph - N/A   Mostly Cloudy
2:53 AM 77.0 °F - 70.0 °F 79% 30.04 in 10.0 mi East 12.7 mph - N/A   Scattered Clouds
3:53 AM 75.9 °F - 71.1 °F 85% 30.02 in 10.0 mi ESE 3.5 mph - 0.01 in   Scattered Clouds
4:53 AM 75.0 °F - 71.1 °F 87% 30.02 in 10.0 mi East 9.2 mph - 0.03 in   Clear
5:53 AM 75.0 °F - 72.0 °F 90% 30.03 in 10.0 mi East 9.2 mph - N/A   Scattered Clouds
6:53 AM 73.9 °F - 70.0 °F 87% 30.04 in 10.0 mi East 8.1 mph - N/A   Clear
7:53 AM 75.0 °F - 72.0 °F 90% 30.07 in 10.0 mi East 8.1 mph - N/A   Clear
8:53 AM 77.0 °F - 72.0 °F 84% 30.08 in 10.0 mi East 11.5 mph - N/A   Partly Cloudy
9:53 AM 80.1 °F 83.2 °F 70.0 °F 71% 30.09 in 10.0 mi East 12.7 mph 20.7 mph N/A   Mostly Cloudy
10:13 AM 82.4 °F 87.2 °F 71.6 °F 70% 30.09 in 10.0 mi ESE 12.7 mph 23.0 mph N/A   Mostly Cloudy
10:31 AM 82.4 °F 86.3 °F 69.8 °F 66% 30.09 in 10.0 mi ESE 11.5 mph - 0.00 in   Mostly Cloudy
10:45 AM 82.4 °F 86.3 °F 69.8 °F 66% 30.09 in 10.0 mi ESE 13.8 mph - 0.00 in   Overcast
10:53 AM 82.0 °F 85.5 °F 69.1 °F 65% 30.09 in 10.0 mi ESE 11.5 mph - 0.00 in   Mostly Cloudy
11:29 AM 82.4 °F 86.3 °F 69.8 °F 66% 30.08 in 10.0 mi ESE 13.8 mph - N/A   Overcast
11:53 AM 78.1 °F - 72.0 °F 81% 30.07 in 6.0 mi East 10.4 mph 21.9 mph 0.08 in Rain Light Rain
12:06 PM 78.8 °F - 71.6 °F 78% 30.06 in 10.0 mi East 12.7 mph - 0.01 in Rain Light Rain
12:53 PM 78.1 °F - 71.1 °F 79% 30.05 in 8.0 mi ESE 10.4 mph - 0.01 in Rain Light Rain
1:53 PM 80.1 °F 83.6 °F 71.1 °F 74% 30.03 in 10.0 mi SE 15.0 mph 20.7 mph 0.02 in   Mostly Cloudy
2:53 PM 82.9 °F 87.0 °F 70.0 °F 65% 30.01 in 10.0 mi SE 12.7 mph 20.7 mph N/A   Mostly Cloudy
3:53 PM 82.0 °F 85.5 °F 69.1 °F 65% 30.00 in 10.0 mi SE 12.7 mph 20.7 mph N/A   Mostly Cloudy
4:53 PM 82.0 °F 85.5 °F 69.1 °F 65% 30.00 in 10.0 mi East 12.7 mph - N/A   Mostly Cloudy
5:53 PM 79.0 °F - 68.0 °F 69% 30.02 in 10.0 mi East 12.7 mph - N/A   Clear
6:53 PM 77.0 °F - 69.1 °F 76% 30.03 in 10.0 mi East 9.2 mph - N/A   Clear
7:53 PM 77.0 °F - 70.0 °F 79% 30.04 in 10.0 mi East 11.5 mph - N/A   Mostly Cloudy
8:53 PM 77.0 °F - 69.1 °F 76% 30.06 in 10.0 mi East 8.1 mph - N/A   Clear
9:53 PM 75.0 °F - 69.1 °F 82% 30.05 in 10.0 mi East 6.9 mph - N/A   Clear
10:53 PM 75.9 °F - 69.1 °F 79% 30.04 in 10.0 mi East 6.9 mph - N/A   Clear
11:53 PM 75.0 °F - 69.1 °F 82% 30.04 in 10.0 mi East 4.6 mph - N/A   Clear